Weather History for Cincinnati, OH

Change the Weather History Date:

Tuesday, August 20, 2013

  Actual Average Record
Temperature  
Mean Temperature 72 °F -  
Max Temperature 86 °F 84 °F 102 °F (1983)
Min Temperature 60 °F 64 °F 52 °F (1998)
Cooling Degree Days 7    
Growing Degree Days 22 (Base 50)    
Moisture  
Dew Point 64 °F    
Average Humidity 82    
Maximum Humidity 100    
Minimum Humidity 46    
Precipitation  
Precipitation 0.00 in - - ()
Sea Level Pressure  
Sea Level Pressure 30.14 in    
Wind  
Wind Speed 1 mph (ESE)    
Max Wind Speed 8 mph    
Max Gust Speed -    
Visibility 6 miles    
Events Fog    
Averages and records for this station are not official NWS values.
T = Trace of Precipitation, MM = Missing Value Source: NWS Daily Summary

Daily Weather History Graph

Daily Weather History Graph

Search for Another Location

Airport:

Trip Planner

Search our weather history database for the weather conditions in past years. The results will help you decide how hot, cold, wet, or windy it might be!

Date:

Astronomy

Aug. 20, 2013 Rise Set
Actual Time 6:55 AM EDT 8:25 PM EDT
Civil Twilight 6:27 AM EDT 8:53 PM EDT
Nautical Twilight 5:53 AM EDT 9:27 PM EDT
Astronomical Twilight 5:17 AM EDT 10:03 PM EDT
Moon 7:57 PM EDT (8/20) 6:24 AM EDT (8/20)
Length of Visible Light 14h 26m
Length of Day
13h 29m
Full, 100% of the Moon is Illuminated
Aug 20
Full
Aug 20
Full
Aug 28
Last Quarter
Sep 5
New
Sep 12
First Quarter

Hourly Weather History & Observations

Time (EDT) Temp. Heat Index Dew Point Humidity Pressure Visibility Wind Dir Wind Speed Gust Speed Precip Events Conditions
12:53 AM 64.0 °F - 63.0 °F 96% 30.12 in 4.0 mi Calm Calm - N/A   Clear
1:53 AM 63.0 °F - 62.1 °F 97% 30.12 in 4.0 mi Calm Calm - N/A   Clear
2:53 AM 63.0 °F - 62.1 °F 97% 30.12 in 4.0 mi Calm Calm - N/A   Clear
3:53 AM 62.1 °F - 62.1 °F 100% 30.12 in 3.0 mi Calm Calm - N/A   Clear
4:16 AM 62.6 °F - 60.8 °F 94% 30.13 in 4.0 mi Calm Calm - N/A   Partly Cloudy
4:33 AM 60.8 °F - 60.8 °F 100% 30.13 in 2.5 mi Calm Calm - N/A   Mostly Cloudy
4:43 AM 62.6 °F - 60.8 °F 94% 30.13 in 3.0 mi Calm Calm - N/A   Mostly Cloudy
4:53 AM 62.1 °F - 61.0 °F 96% 30.12 in 4.0 mi Calm Calm - N/A   Overcast
5:53 AM 61.0 °F - 60.1 °F 97% 30.12 in 3.0 mi Calm Calm - N/A   Mostly Cloudy
5:58 AM 60.8 °F - 60.8 °F 100% 30.13 in 2.5 mi Calm Calm - N/A   Scattered Clouds
6:53 AM 61.0 °F - 61.0 °F 100% 30.14 in 3.0 mi Calm Calm - N/A Fog Patches of Fog
7:53 AM 62.1 °F - 62.1 °F 100% 30.17 in 3.0 mi Calm Calm - N/A Fog Patches of Fog
8:29 AM 64.4 °F - 64.4 °F 100% 30.18 in 4.0 mi Calm Calm - N/A Fog Patches of Fog
8:53 AM 66.0 °F - 64.9 °F 96% 30.18 in 4.0 mi Calm Calm - N/A   Clear
9:53 AM 71.1 °F - 66.0 °F 84% 30.18 in 4.0 mi Calm Calm - N/A   Haze
10:53 AM 78.1 °F - 69.1 °F 74% 30.18 in 6.0 mi Calm Calm - N/A   Haze
11:53 AM 79.0 °F - 68.0 °F 69% 30.18 in 9.0 mi Calm Calm - N/A   Clear
12:53 PM 84.0 °F 84.5 °F 62.1 °F 47% 30.17 in 10.0 mi Variable 5.8 mph - N/A   Partly Cloudy
1:53 PM 84.0 °F 84.5 °F 62.1 °F 47% 30.15 in 10.0 mi East 8.1 mph - N/A   Partly Cloudy
2:53 PM 82.9 °F 83.2 °F 60.1 °F 46% 30.14 in 10.0 mi East 5.8 mph - N/A   Scattered Clouds
3:53 PM 84.9 °F 86.1 °F 64.0 °F 49% 30.11 in 10.0 mi Variable 4.6 mph - N/A   Scattered Clouds
4:53 PM 84.0 °F 84.5 °F 62.1 °F 47% 30.10 in 10.0 mi ESE 5.8 mph - N/A   Partly Cloudy
5:53 PM 84.0 °F 84.5 °F 62.1 °F 47% 30.10 in 10.0 mi SSE 6.9 mph - N/A   Clear
6:53 PM 81.0 °F 82.7 °F 64.9 °F 58% 30.09 in 10.0 mi South 3.5 mph - N/A   Partly Cloudy
7:53 PM 75.9 °F - 69.1 °F 79% 30.11 in 9.0 mi Calm Calm - N/A   Clear
8:53 PM 73.0 °F - 66.9 °F 81% 30.12 in 8.0 mi Calm Calm - N/A   Scattered Clouds
9:53 PM 71.1 °F - 66.9 °F 87% 30.12 in 7.0 mi Calm Calm - N/A   Clear
10:53 PM 69.1 °F - 66.9 °F 93% 30.14 in 6.0 mi Calm Calm - N/A   Clear
11:53 PM 68.0 °F - 66.0 °F 93% 30.14 in 5.0 mi Calm Calm - N/A   Clear